Location: Palm Bay
(27.9400°N, 80.7200°W)
Time: 22:01:00
(UTC-04:00)

Daily predictions for brighter satellites

Satellite Brightness Start Highest point End
(mag) Time Altitude Azimuth Time Altitude Azimuth Time Altitude Azimuth
Milstar 3 Cent rocket 3.2 20:26:25 10° W 20:37:53 73° SSW 20:43:40 10° ESE
BREEZE-M R/B 4.4 20:39:56 10° WNW 20:42:48 30° SW 20:47:39 10° SSE
H-2A R/B 3.9 20:39:55 10° SE 20:43:19 28° ENE 20:46:43 10° NNE
Resurs 01 Rocket 2.8 20:41:10 10° S 20:45:25 46° W 20:49:42 10° NNW
Resurs 1-3 4.1 20:42:04 10° S 20:46:24 65° WSW 20:50:46 10° NNW
GPS 2-15 Rocket1 4.5 20:42:57 10° WSW 20:46:54 26° S 20:50:54 10° SE
Cosmos 2098 Rocket 3.7 20:43:53 10° NNW 20:47:54 63° W 20:53:03 10° S
Mugunghwa Rocket 4.5 20:43:25 10° SW 20:49:12 39° SSE 20:55:05 10° E
COSMOS 2455 2.8 20:47:59 10° SSW 20:53:54 66° ESE 20:59:52 10° NNE
Cosmos 1726 Rocket 3.5 20:55:13 10° N 20:59:39 87° E 21:04:01 10° S
ATLAS 3B CENTAUR R/B 4.2 21:03:56 10° SSW 21:04:22 10° S 21:04:50 10° S
Cosmos 2278 Rocket 3.8 20:59:40 10° NW 21:04:43 34° WSW 21:09:45 10° SSW
ALOS 2.3 21:00:16 10° SSE 21:04:52 65° ENE 21:09:30 10° N
ISS 0.0 21:10:16 10° WNW 21:11:58 13° NW 21:13:41 10° N
Cosmos 1602 Rocket 3.5 21:10:08 10° S 21:14:34 69° E 21:19:01 10° NNE
Cosmos 2369 Rocket 4.1 21:12:27 10° NNE 21:15:00 13° ENE 21:17:25 10° E
ATLAS 3B R/B 3.0 21:07:59 10° S 21:15:25 55° ESE 21:22:49 10° NE
USA 186 1.4 21:14:17 13° S 21:16:47 80° W 21:19:27 10° NNW
Cosmos 1331 Rocket 4.4 21:12:01 10° NNW 21:17:07 61° WSW 21:22:10 10° S
Fermi 3.9 21:13:51 10° W 21:17:53 56° S 21:20:18 22° ESE
Cosmos 1666 2.7 21:16:03 10° N 21:19:56 68° E 21:22:54 16° SSE
Cosmos 1513 Rocket 4.5 21:14:19 10° N 21:20:29 62° E 21:26:04 12° SSE
Abrixas rocket 2.2 21:18:55 10° NW 21:22:21 85° SW 21:24:01 28° SE
Cosmos 2058 Rocket 3.5 21:19:40 10° NNW 21:23:58 61° W 21:28:15 10° S
Tsikada Rocket 4.0 21:20:10 10° S 21:26:32 71° E 21:32:53 10° N
IUS-1 SRM-2 3.7 21:29:30 10° WSW 21:30:33 12° SSW 21:30:46 12° SSW
Cosmos 1302 Rocket 4.0 21:25:21 10° NNW 21:30:37 84° WSW 21:34:49 16° SSE
CZ-2D R/B 4.4 21:26:57 10° S 21:30:38 42° W 21:34:21 10° NNW
Cosmos 1812 Rocket 4.1 21:28:42 10° NNE 21:32:51 39° E 21:34:25 29° SE
CZ-2C R/B 0.2 21:33:08 77° E 21:33:08 77° E 21:35:24 10° N
SPOT 5 3.9 21:32:24 22° E 21:33:22 23° ENE 21:36:48 10° NNE
H-2A R/B 2.1 21:36:22 29° SE 21:38:20 60° ENE 21:42:37 10° N
YAOGAN 11 4.3 21:35:22 15° S 21:38:55 67° WSW 21:43:12 10° NNW
Lacrosse 4 Rocket 1.2 21:35:03 10° SSW 21:39:02 67° ESE 21:43:03 10° NNE
ERS-1 Rocket 2.9 21:37:13 21° SSE 21:40:35 81° ENE 21:45:36 10° N
Timation 1 Rocket 4.3 21:36:59 10° NNW 21:43:00 86° WSW 21:46:51 23° SSE
Cosmos 1515 3.6 21:43:19 35° SSE 21:44:45 64° E 21:48:34 10° NNE
GEOS 3 Rocket 3.9 21:42:38 29° ESE 21:45:07 54° NE 21:50:13 10° NNW
deb Chang Zheng 4 4.4 21:43:16 10° N 21:47:31 52° WNW 21:51:44 10° SSW
Cosmos 2228 4.0 21:45:04 10° NNW 21:49:18 47° W 21:52:56 13° SSW
Cosmos 1066 Rocket 4.3 21:48:14 27° SSE 21:51:12 55° E 21:56:50 10° NNE
GPS 2-17 Rocket1 4.2 21:47:46 10° SW 21:50:56 26° S 21:50:56 26° S
Cosmos 1816 Rocket 4.5 21:47:19 10° S 21:53:41 89° W 22:00:03 10° N
Meteor 2-12 Rocket 4.5 21:48:08 10° N 21:54:06 58° E 21:56:36 34° SE
OAO 3 Copernicus 4.3 21:50:32 10° WNW 21:55:34 69° SSW 21:57:03 44° SE
Envisat 3.1 21:54:15 39° SE 21:55:54 57° ENE 22:00:53 10° N
Atlas Centaur 2 3.0 21:49:58 10° W 21:57:00 74° N 22:03:24 18° E
Cosmos 407 Rocket 3.4 21:55:32 23° S 21:58:53 68° ESE 22:04:05 10° NNE
USA 238 DEB 4.0 21:54:53 15° S 22:00:29 45° ESE 22:07:08 10° NE
USA 238 4.0 21:55:31 17° S 22:00:35 44° ESE 22:07:13 10° NE
Cosmos 1634 Rocket 4.3 21:59:57 10° N 22:05:53 47° E 22:07:18 41° ESE
Cosmos 1953 Rocket 3.6 22:06:22 56° E 22:06:22 56° E 22:10:42 10° NNE
Cosmos 489 Rocket 4.4 22:01:12 15° S 22:06:35 76° ESE 22:12:56 10° NNE
Cosmos 1943 Rocket 4.1 22:05:39 10° NNE 22:08:31 14° ENE 22:08:55 14° ENE
Cosmos 1943 3.9 22:03:41 10° SW 22:09:11 53° WNW 22:14:45 10° N
Cosmos 1461 4.2 22:08:07 10° NW 22:11:44 30° WSW 22:12:47 26° SW
Cosmos 2346 Rocket 4.3 22:10:15 29° S 22:13:38 85° E 22:19:48 10° N
Cosmos 1939 Rocket 3.3 22:13:44 48° SSW 22:14:36 59° W 22:18:42 10° NNW
Centaur D AC-29 4.0 22:11:18 10° W 22:18:48 16° WSW 22:21:59 12° SSW
Cosmos 1954 Rocket 4.0 22:19:49 59° ESE 22:19:51 59° ESE 22:25:03 10° NNE
Cosmos 1932 4.3 22:15:21 11° SSW 22:21:19 81° ESE 22:27:31 10° NNE
Cosmos 1346 Rocket 3.2 22:27:06 61° NW 22:27:06 61° NW 22:30:37 10° N
Delta 168 4.4 22:24:45 10° W 22:26:10 23° WSW 22:26:10 23° WSW
SeaSat 1 2.6 22:35:39 59° NE 22:35:39 59° NE 22:40:18 10° NNW
ARGOS 3.5 22:36:49 50° ENE 22:36:49 50° ENE 22:41:48 10° N
Cosmos 1992 Rocket 4.1 22:32:12 10° NNW 22:37:22 67° WSW 22:37:49 63° SW
Cosmos 1758 Rocket 3.9 22:40:29 61° NW 22:40:29 61° NW 22:44:20 10° N
Meteor 1-21 4.2 22:39:58 69° S 22:40:43 89° WNW 22:46:33 10° N
Mugunghwa Rocket 3.8 22:38:17 10° WSW 22:44:35 73° S 22:44:41 73° SSE
MetOp-B 4.2 22:45:19 66° SW 22:45:41 69° WSW 22:51:02 10° NNW
USA 81 4.3 22:41:44 10° NNW 22:46:55 60° W 22:47:29 56° WSW
Cosmos 2369 Rocket 2.4 22:53:50 10° NNW 22:59:14 63° W 22:59:14 63° W
H-2A R/B 3.3 23:04:51 31° NNE 23:04:51 31° NNE 23:07:51 10° N
NOAA 11 4.4 23:05:44 66° NNW 23:05:44 66° NNW 23:10:22 10° NNW
Cosmos 1140 Rocket 4.1 23:07:18 53° N 23:07:18 53° N 23:11:20 10° NNE
SPOT 1/Viking Rocket 4.3 23:12:56 47° WNW 23:12:56 47° WNW 23:17:14 10° NNW
Terra 3.4 23:14:42 28° NNE 23:14:42 28° NNE 23:17:07 10° N
Milstar 3 Cent rocket 4.5 23:11:38 10° WSW 23:12:56 13° WSW 23:12:56 13° WSW
USA 234 3.7 23:21:50 48° NE 23:22:06 48° NE 23:28:20 10° NNW
ATLAS 5 CENTAUR R/B4.423:48:12ESE23:48:12ESE23:23:06WSW
COSMOS 2406 4.2 23:33:42 41° WNW 23:33:44 41° WNW 23:39:07 10° N
Nadezhda 4 Rocket 4.4 23:34:53 62° NNW 23:34:53 62° NNW 23:40:16 10° N
Atlas Centaur 2 3.1 23:39:17 10° WNW 23:46:02 70° W 23:46:02 70° W
Cosmos 1943 Rocket 3.5 23:47:05 10° NNW 23:50:27 36° NW 23:50:27 36° NW
